Location: Unspecified
(48.5670°N, 0.0000°E)
Time: 16:48:29
(UTC+00:00)

Transit 4A - Pass Details

Date: 28 August 2019
Orbit: 867 x 978 km, 66.8° (Epoch: 23 October)

Event Time Altitude Azimuth Distance (km) Brightness Sun altitude
Rises 01:50:41 0° 323° (NW) 3,636 11.3 -26.8°
Reaches altitude 10° 01:53:17 10° 320° (NW) 2,672 10.5 -26.6°
Enters shadow 01:59:07 61° 256° (WSW) 1,045 7.9 -26.1°
